�N����,����,�~����,�C��,���x,�C��,����,���ϕ���,�ő�u�ԕ���,�ő厞����,���˗�,�I�_���x,�n�����x,�ő啗���N��,DTYPE
"17/11/02","00:10",0.0,7.3,96.5,1014.7,292.0,1.3,2.4,314.7,0.00,6.8,13.4,"00:08:56",1
"17/11/02","00:20",0.0,7.3,95.7,1014.5,304.0,1.0,1.4,280.3,0.00,6.7,13.2,"00:11:20",1
"17/11/02","00:30",0.0,6.9,96.4,1014.7,289.0,1.3,2.1,307.5,0.00,6.4,13.1,"00:28:00",1
"17/11/02","00:40",0.0,6.8,96.8,1014.5,303.3,1.3,2.2,324.7,0.00,6.4,12.9,"00:30:32",1
"17/11/02","00:50",0.0,6.6,97.8,1014.5,278.4,1.2,1.9,320.6,0.00,6.3,12.9,"00:46:32",1
"17/11/02","01:00",0.0,6.5,97.2,1014.7,298.9,1.0,1.9,313.6,0.00,6.1,12.7,"00:55:12",1
"17/11/02","01:10",0.0,6.3,97.8,1014.5,294.0,1.2,1.9,309.3,0.00,6.0,12.9,"01:07:20",1
"17/11/02","01:20",0.0,6.8,99.0,1014.5,290.0,1.6,2.5,317.6,0.00,6.7,12.7,"01:15:36",1
"17/11/02","01:30",0.0,7.1,97.2,1014.7,301.4,1.1,2.0,315.2,0.00,6.7,12.9,"01:22:40",1
"17/11/02","01:40",0.0,6.8,98.4,1014.2,308.7,1.5,2.4,323.2,0.00,6.6,12.7,"01:36:32",1
"17/11/02","01:50",0.0,7.6,97.3,1014.0,309.0,2.0,3.1,313.1,0.00,7.2,12.6,"01:49:44",1
"17/11/02","02:00",0.0,7.7,96.8,1014.2,290.7,1.7,3.1,324.4,0.00,7.3,12.6,"01:54:08",1
"17/11/02","02:10",0.0,7.4,96.4,1014.0,292.2,1.2,2.1,314.2,0.00,6.9,12.8,"02:09:20",1
"17/11/02","02:20",0.0,7.1,96.5,1014.0,314.8,1.3,2.0,313.6,0.00,6.6,12.7,"02:12:16",1
"17/11/02","02:30",0.0,6.9,97.4,1014.0,282.2,1.1,1.7,300.8,0.00,6.6,12.4,"02:28:24",1
"17/11/02","02:40",0.0,6.9,97.7,1014.0,322.8,2.1,3.1,315.8,0.00,6.6,12.8,"02:37:20",1
"17/11/02","02:50",0.0,6.6,98.0,1014.5,288.9,1.3,1.9,338.6,0.00,6.3,12.4,"02:40:08",1
"17/11/02","03:00",0.0,6.6,96.5,1014.5,296.1,1.5,2.0,306.4,0.00,6.1,12.5,"02:57:52",1
"17/11/02","03:10",0.0,6.3,98.7,1014.0,298.2,1.2,1.8,321.9,0.00,6.2,12.5,"03:01:52",1
"17/11/02","03:20",0.0,6.4,97.5,1014.0,281.7,0.7,1.4,302.1,0.00,6.1,12.5,"03:19:04",1
"17/11/02","03:30",0.0,6.2,98.3,1013.8,296.6,1.1,1.6,315.8,0.00,6.0,12.5,"03:27:36",1
"17/11/02","03:40",0.0,6.2,97.7,1013.8,311.1,1.7,2.2,323.2,0.00,5.9,12.6,"03:36:16",1
"17/11/02","03:50",0.0,6.0,98.2,1014.0,300.8,1.3,1.9,322.5,0.00,5.8,12.3,"03:40:08",1
"17/11/02","04:00",0.0,6.1,98.2,1013.8,299.0,1.2,1.7,311.9,0.00,5.9,12.3,"03:51:44",1
"17/11/02","04:10",0.0,6.0,98.3,1013.5,304.8,1.5,2.4,317.5,0.00,5.8,12.3,"04:08:24",1
"17/11/02","04:20",0.0,6.0,97.9,1013.8,310.7,1.8,2.1,321.6,0.00,5.7,12.3,"04:16:24",1
"17/11/02","04:30",0.0,5.5,99.0,1013.8,287.6,0.8,1.7,308.8,0.00,5.4,12.2,"04:29:28",1
"17/11/02","04:40",0.0,5.6,98.7,1013.8,298.2,1.5,2.1,314.0,0.00,5.5,12.2,"04:32:16",1
"17/11/02","04:50",0.0,6.2,100.0,1014.0,292.1,0.8,2.1,319.7,0.00,6.2,12.1,"04:48:24",1
"17/11/02","05:00",0.0,6.7,97.6,1013.8,322.0,1.5,2.7,327.2,0.00,6.4,12.1,"04:59:40",1
"17/11/02","05:10",0.0,6.1,98.8,1013.8,317.0,1.7,2.7,327.3,0.00,6.0,12.2,"05:00:32",1
"17/11/02","05:20",0.0,5.9,97.5,1013.8,287.1,1.2,1.8,314.5,0.00,5.6,12.0,"05:16:00",1
"17/11/02","05:30",0.0,5.8,99.2,1013.8,293.9,0.6,1.7,317.5,0.00,5.7,11.9,"05:28:36",1
"17/11/02","05:40",0.0,5.7,98.4,1013.8,295.0,1.2,2.0,323.5,0.00,5.5,11.8,"05:30:40",1
"17/11/02","05:50",0.0,5.5,98.0,1013.5,303.0,1.3,2.2,326.1,0.00,5.2,12.0,"05:41:08",1
"17/11/02","06:00",0.0,5.5,98.9,1013.8,295.9,1.0,1.3,309.8,0.00,5.4,12.0,"05:56:10",1
"17/11/02","06:10",0.0,5.5,98.5,1013.5,291.7,1.0,1.6,312.4,0.00,5.3,11.8,"06:04:54",1
"17/11/02","06:20",0.0,6.4,99.6,1014.0,324.2,1.1,2.1,337.3,0.00,6.4,11.8,"06:16:24",1
"17/11/02","06:30",0.0,7.3,99.2,1013.8,331.3,1.6,2.6,315.7,0.00,7.2,11.7,"06:20:48",1
"17/11/02","06:40",0.0,7.2,97.4,1014.0,312.2,1.0,1.9,330.2,0.00,6.9,12.0,"06:31:44",1
"17/11/02","06:50",0.0,7.2,99.0,1014.2,351.1,1.1,2.2,307.7,0.00,7.1,11.8,"06:43:30",1
"17/11/02","07:00",0.0,7.5,98.2,1014.2,283.0,0.7,1.3,303.8,0.00,7.3,11.9,"06:59:02",1
"17/11/02","07:10",0.0,8.3,96.5,1014.7,324.7,1.2,2.2,352.9,0.00,7.8,11.8,"07:01:52",1
"17/11/02","07:20",0.0,8.2,96.5,1014.2,316.5,0.5,1.0,314.9,0.01,7.7,12.0,"07:10:08",1
"17/11/02","07:30",0.0,8.8,95.9,1014.5,345.4,0.3,1.1,329.0,0.02,8.2,12.2,"07:27:50",1
"17/11/02","07:40",0.0,8.7,96.2,1015.2,294.8,0.8,0.8,292.3,0.02,8.2,11.9,"07:39:36",1
"17/11/02","07:50",0.0,9.9,94.0,1014.9,293.4,0.6,1.9,305.3,0.06,9.0,11.9,"07:49:22",1
"17/11/02","08:00",0.0,10.6,90.7,1014.9,312.3,1.3,2.6,302.5,0.07,9.2,12.2,"07:52:00",1
"17/11/02","08:10",0.0,11.0,89.0,1015.4,305.9,0.7,1.9,340.7,0.09,9.3,12.3,"08:00:56",1
"17/11/02","08:20",0.0,11.6,87.6,1015.6,290.8,1.2,2.6,299.0,0.11,9.7,12.3,"08:14:16",1
"17/11/02","08:30",0.0,11.6,86.7,1015.4,275.0,1.6,2.8,244.9,0.13,9.5,12.5,"08:26:16",1
"17/11/02","08:40",0.0,12.1,84.9,1015.2,280.6,1.6,3.2,320.7,0.16,9.7,12.5,"08:32:08",1
"17/11/02","08:50",0.0,12.9,84.5,1015.6,278.1,1.3,2.5,300.1,0.20,10.4,12.5,"08:46:32",1
"17/11/02","09:00",0.0,13.0,82.0,1015.6,279.0,1.5,2.7,237.0,0.23,10.0,12.7,"08:57:04",1
"17/11/02","09:10",0.0,13.5,80.5,1015.6,284.4,1.6,3.1,318.4,0.26,10.3,12.9,"09:00:08",1
"17/11/02","09:20",0.0,14.0,78.0,1015.6,284.8,1.3,2.6,301.8,0.29,10.3,13.1,"09:12:48",1
"17/11/02","09:30",0.0,14.3,77.3,1015.6,259.9,1.5,3.2,240.0,0.30,10.4,13.2,"09:20:48",1
"17/11/02","09:40",0.0,14.4,75.7,1015.2,235.0,1.2,2.8,238.2,0.32,10.2,13.4,"09:31:12",1
"17/11/02","09:50",0.0,15.1,72.4,1014.9,252.5,0.7,1.2,271.7,0.35,10.2,13.6,"09:44:00",1
"17/11/02","10:00",0.0,15.3,73.1,1015.2,159.0,0.5,1.0,356.6,0.35,10.6,13.8,"09:50:56",1
"17/11/02","10:10",0.0,16.0,71.2,1014.5,247.3,0.8,2.8,229.4,0.38,10.8,14.0,"10:08:08",1
"17/11/02","10:20",0.0,16.4,68.1,1014.0,233.3,0.7,2.0,228.3,0.39,10.5,14.4,"10:19:04",1
"17/11/02","10:30",0.0,16.5,67.3,1014.2,147.7,1.0,1.9,117.0,0.38,10.5,14.5,"10:29:12",1
"17/11/02","10:40",0.0,16.8,68.2,1014.0,159.2,0.7,2.4,121.7,0.37,11.0,14.6,"10:30:32",1
"17/11/02","10:50",0.0,16.9,66.7,1013.8,183.2,1.0,2.8,204.8,0.40,10.7,14.8,"10:45:36",1
"17/11/02","11:00",0.0,17.2,67.3,1013.8,86.7,0.8,2.5,118.6,0.40,11.1,14.8,"10:56:24",1
"17/11/02","11:10",0.0,17.5,65.6,1013.8,128.8,1.1,2.5,121.0,0.41,11.0,15.2,"11:02:08",1
"17/11/02","11:20",0.0,18.3,63.2,1013.0,183.5,0.7,1.9,26.3,0.43,11.2,15.4,"11:18:16",1
"17/11/02","11:30",0.0,18.2,63.3,1013.3,209.1,0.8,2.4,187.6,0.42,11.2,15.7,"11:23:36",1
"17/11/02","11:40",0.0,18.9,61.6,1012.8,20.0,0.6,2.0,116.1,0.44,11.4,15.8,"11:39:12",1
"17/11/02","11:50",0.0,18.8,60.1,1012.6,86.7,1.1,2.8,117.5,0.45,10.9,16.0,"11:43:44",1
"17/11/02","12:00",0.0,19.1,57.0,1012.1,171.8,0.7,1.8,181.6,0.46,10.4,16.2,"11:55:44",1
"17/11/02","12:10",0.0,19.5,58.7,1011.6,251.4,0.8,2.0,202.9,0.46,11.2,16.3,"12:07:28",1
"17/11/02","12:20",0.0,19.9,57.8,1011.4,204.5,1.0,3.2,236.2,0.46,11.4,16.7,"12:14:24",1
"17/11/02","12:30",0.0,19.9,57.7,1010.9,154.2,1.1,2.5,213.4,0.45,11.4,16.6,"12:25:04",1
"17/11/02","12:40",0.0,20.2,54.4,1010.9,191.5,1.1,2.8,203.3,0.44,10.8,16.9,"12:35:44",1
"17/11/02","12:50",0.0,20.7,54.2,1010.7,222.8,0.6,1.4,185.9,0.43,11.2,17.2,"12:49:28",1
"17/11/02","13:00",0.0,20.8,54.5,1010.4,212.8,1.2,3.3,226.8,0.42,11.3,17.2,"12:51:28",1
"17/11/02","13:10",0.0,20.5,54.2,1010.4,211.3,1.5,2.9,204.5,0.41,11.0,17.3,"13:02:16",1
"17/11/02","13:20",0.0,20.9,53.0,1010.2,206.1,1.0,2.2,197.1,0.39,11.0,17.5,"13:11:28",1
"17/11/02","13:30",0.0,21.0,53.1,1010.2,190.3,1.2,3.1,229.5,0.38,11.1,17.7,"13:20:40",1
"17/11/02","13:40",0.0,21.4,53.2,1010.2,162.4,0.7,2.2,129.4,0.37,11.5,17.8,"13:36:00",1
"17/11/02","13:50",0.0,21.3,51.9,1010.0,187.1,1.1,3.1,226.5,0.35,11.1,17.9,"13:44:32",1
"17/11/02","14:00",0.0,21.5,52.7,1009.7,206.8,1.2,2.8,233.1,0.33,11.5,18.0,"13:50:16",1
"17/11/02","14:10",0.0,21.4,50.3,1009.7,200.5,1.1,3.2,228.8,0.31,10.7,18.0,"14:00:02",1
"17/11/02","14:20",0.0,21.5,53.0,1010.2,212.6,1.6,3.4,228.2,0.29,11.6,18.2,"14:12:24",1
"17/11/02","14:30",0.0,21.6,50.2,1010.0,198.3,1.3,3.5,147.0,0.27,10.8,18.0,"14:22:00",1
"17/11/02","14:40",0.0,21.3,52.0,1009.5,197.3,1.3,2.8,191.5,0.25,11.1,18.1,"14:39:20",1
"17/11/02","14:50",0.0,21.3,48.7,1009.5,191.9,1.5,3.4,229.5,0.22,10.1,18.1,"14:42:32",1
"17/11/02","15:00",0.0,21.1,45.8,1010.0,211.0,1.7,2.9,233.5,0.20,9.0,18.1,"14:59:36",1
"17/11/02","15:10",0.0,21.1,46.2,1009.7,231.1,1.7,3.4,233.5,0.18,9.1,18.1,"15:04:24",1
"17/11/02","15:20",0.0,20.9,43.3,1009.7,213.2,0.8,2.7,224.1,0.15,8.0,18.2,"15:11:52",1
"17/11/02","15:30",0.0,20.9,46.3,1009.7,176.4,0.6,1.7,212.8,0.13,9.0,18.0,"15:24:00",1
"17/11/02","15:40",0.0,20.8,45.5,1009.5,192.1,0.6,1.6,237.6,0.10,8.6,17.9,"15:39:04",1
"17/11/02","15:50",0.0,20.9,47.0,1010.0,247.1,1.1,2.4,238.5,0.08,9.2,17.9,"15:41:12",1
"17/11/02","16:00",0.0,20.5,49.4,1009.7,251.0,1.1,2.0,238.7,0.06,9.6,17.9,"15:50:32",1
"17/11/02","16:10",0.0,20.0,52.5,1009.7,288.4,1.2,1.9,317.2,0.04,10.0,17.7,"16:00:56",1
"17/11/02","16:20",0.0,19.0,57.9,1010.0,297.0,1.1,1.7,321.6,0.02,10.6,17.7,"16:15:12",1
"17/11/02","16:30",0.0,17.9,61.9,1009.7,279.3,1.0,1.6,282.3,0.01,10.5,17.4,"16:25:04",1
"17/11/02","16:40",0.0,16.8,67.5,1009.7,286.0,1.0,1.4,263.4,0.00,10.8,17.5,"16:32:40",1
"17/11/02","16:50",0.0,16.1,70.7,1010.2,287.8,0.8,1.3,262.5,0.00,10.8,17.2,"16:44:00",1
"17/11/02","17:00",0.0,15.5,72.8,1010.0,294.8,0.6,1.2,292.9,0.00,10.7,17.1,"16:58:32",1
"17/11/02","17:10",0.0,15.0,75.1,1010.4,283.6,0.8,1.1,266.3,0.00,10.7,17.1,"17:02:48",1
"17/11/02","17:20",0.0,14.7,76.6,1010.4,283.1,0.8,1.2,251.2,0.00,10.7,16.9,"17:11:20",1
"17/11/02","17:30",0.0,14.6,76.6,1010.4,276.3,1.0,1.3,264.9,0.00,10.6,16.8,"17:29:20",1
"17/11/02","17:40",0.0,14.4,77.1,1010.4,283.8,1.1,1.7,310.1,0.00,10.5,16.6,"17:35:12",1
"17/11/02","17:50",0.0,14.0,78.2,1010.9,283.7,1.1,1.6,311.5,0.00,10.3,16.3,"17:44:26",1
"17/11/02","18:00",0.0,13.9,78.3,1010.9,276.6,1.2,1.9,287.0,0.00,10.2,16.2,"17:52:02",1
"17/11/02","18:10",0.0,13.5,79.5,1010.9,303.5,1.3,2.2,314.1,0.00,10.1,16.1,"18:04:48",1
"17/11/02","18:20",0.0,12.6,83.0,1010.9,319.4,1.5,2.2,328.0,0.00,9.8,16.1,"18:14:28",1
"17/11/02","18:30",0.0,12.2,86.1,1011.2,310.4,1.3,2.0,292.4,0.00,10.0,16.0,"18:29:54",1
"17/11/02","18:40",0.0,12.7,82.8,1010.9,290.4,1.6,2.7,317.4,0.00,9.9,15.9,"18:39:00",1
"17/11/02","18:50",0.0,12.8,82.2,1011.2,293.2,1.5,2.0,333.5,0.00,9.9,15.7,"18:40:22",1
"17/11/02","19:00",0.0,12.7,82.0,1010.9,295.9,1.1,1.7,309.1,0.00,9.7,15.7,"18:56:10",1
"17/11/02","19:10",0.0,12.2,83.7,1010.9,325.5,1.2,1.9,323.9,0.00,9.6,15.3,"19:07:12",1
"17/11/02","19:20",0.0,11.5,86.2,1010.9,323.2,1.2,1.7,330.3,0.00,9.3,15.1,"19:13:58",1
"17/11/02","19:30",0.0,10.9,87.3,1010.9,336.6,0.5,1.6,318.7,0.00,8.9,15.4,"19:20:50",1
"17/11/02","19:40",0.0,10.6,89.8,1011.2,326.7,1.5,1.9,326.1,0.00,9.0,15.4,"19:38:24",1
"17/11/02","19:50",0.0,10.3,91.1,1010.9,325.8,1.5,2.1,318.8,0.00,9.0,15.3,"19:41:56",1
"17/11/02","20:00",0.0,10.0,92.8,1011.4,286.6,0.8,1.0,290.4,0.00,8.9,15.1,"19:50:16",1
"17/11/02","20:10",0.0,10.2,92.6,1011.4,318.6,1.3,2.1,344.2,0.00,9.1,15.1,"20:04:44",1
"17/11/02","20:20",0.0,9.8,91.6,1011.4,314.5,1.0,1.7,314.9,0.00,8.5,14.7,"20:19:42",1
"17/11/02","20:30",0.0,9.2,92.4,1011.4,300.5,1.0,1.6,317.9,0.00,8.1,14.7,"20:24:20",1
"17/11/02","20:40",0.0,9.3,94.1,1011.4,323.6,1.5,1.9,320.5,0.00,8.4,14.8,"20:38:18",1
"17/11/02","20:50",0.0,9.4,94.5,1011.4,314.2,1.6,2.1,324.5,0.00,8.6,14.7,"20:42:26",1
"17/11/02","21:00",0.0,9.5,95.0,1011.4,307.0,1.3,1.8,314.3,0.00,8.8,14.7,"20:50:58",1
"17/11/02","21:10",0.0,9.7,94.1,1011.4,299.0,1.2,1.8,309.4,0.00,8.8,14.6,"21:06:22",1
"17/11/02","21:20",0.0,9.8,93.1,1011.4,292.6,1.0,2.0,309.8,0.00,8.8,14.5,"21:15:02",1
"17/11/02","21:30",0.0,9.6,90.8,1011.4,306.0,1.5,2.2,321.4,0.00,8.2,14.3,"21:28:54",1
"17/11/02","21:40",0.0,9.2,93.4,1011.6,327.1,1.6,2.0,329.1,0.00,8.2,14.3,"21:30:08",1
"17/11/02","21:50",0.0,9.1,94.7,1011.6,312.8,1.5,2.0,322.9,0.00,8.3,14.3,"21:40:16",1
"17/11/02","22:00",0.0,9.2,94.9,1011.4,327.1,1.5,2.0,325.9,0.00,8.5,14.3,"21:54:46",1
"17/11/02","22:10",0.0,8.9,94.3,1011.6,312.4,1.3,1.9,323.0,0.00,8.1,14.3,"22:03:14",1
"17/11/02","22:20",0.0,8.6,95.3,1011.6,298.3,1.1,1.7,320.0,0.00,7.9,14.1,"22:10:40",1
"17/11/02","22:30",0.0,8.8,95.8,1011.4,295.7,1.2,1.7,312.9,0.00,8.2,13.9,"22:28:30",1
"17/11/02","22:40",0.0,9.6,95.5,1011.4,336.0,1.5,2.5,344.1,0.00,9.0,14.1,"22:35:18",1
"17/11/02","22:50",0.0,9.9,91.5,1011.6,302.3,1.0,1.9,347.1,0.00,8.6,13.7,"22:40:50",1
"17/11/02","23:00",0.0,10.3,92.0,1011.6,308.9,1.3,3.1,301.2,0.00,9.1,14.0,"22:58:38",1
"17/11/02","23:10",0.0,11.4,86.1,1011.4,324.6,2.2,4.3,327.4,0.00,9.2,13.8,"23:04:32",1
"17/11/02","23:20",0.0,11.4,84.6,1011.6,306.0,2.2,3.3,314.5,0.00,8.9,14.0,"23:16:20",1
"17/11/02","23:30",0.0,11.1,85.1,1011.6,317.5,1.6,2.5,305.5,0.00,8.7,13.7,"23:21:52",1
"17/11/02","23:40",0.0,10.9,86.3,1011.2,318.7,1.8,2.8,309.9,0.00,8.7,13.9,"23:33:30",1
"17/11/02","23:50",0.0,10.7,87.0,1011.6,326.3,2.0,2.9,342.8,0.00,8.7,13.7,"23:42:04",1
"17/11/02","24:00",0.0,10.8,86.9,1011.4,322.1,2.0,3.6,324.4,0.00,8.7,13.8,"23:52:06",1
